TimeCDT,TemperatureF,Dew PointF,Humidity,Sea Level PressureIn,VisibilityMPH,Wind Direction,Wind SpeedMPH,Gust SpeedMPH,PrecipitationIn,Events,Conditions,WindDirDegrees,DateUTC
12:55 AM,49.5,49.5,100,30.15,10.0,South,4.6,-,N/A,,Clear,190,2011-10-07 05:55:00
1:55 AM,48.7,48.7,100,30.15,10.0,South,4.6,-,N/A,,Clear,180,2011-10-07 06:55:00
2:55 AM,49.6,49.6,100,30.15,10.0,Calm,Calm,-,N/A,,Clear,0,2011-10-07 07:55:00
3:55 AM,49.6,49.6,100,30.17,10.0,Calm,Calm,-,N/A,,Clear,0,2011-10-07 08:55:00
4:55 AM,48.2,48.2,100,30.18,10.0,SW,3.5,-,N/A,,Clear,230,2011-10-07 09:55:00
5:55 AM,48.2,48.2,100,30.18,10.0,Calm,Calm,-,N/A,,Clear,0,2011-10-07 10:55:00
6:55 AM,48.2,48.2,100,30.19,10.0,SW,3.5,-,N/A,,Clear,230,2011-10-07 11:55:00
7:55 AM,53.6,53.6,100,30.20,10.0,SSW,4.6,-,N/A,,Scattered Clouds,200,2011-10-07 12:55:00
8:55 AM,62.8,58.1,85,30.20,10.0,SW,8.1,-,N/A,,Partly Cloudy,220,2011-10-07 13:55:00
9:55 AM,68.0,56.1,66,30.18,10.0,SW,9.2,-,N/A,,Partly Cloudy,230,2011-10-07 14:55:00
10:55 AM,71.6,55.4,57,30.17,10.0,South,10.4,18.4,N/A,,Mostly Cloudy,180,2011-10-07 15:55:00
11:55 AM,75.2,55.4,50,30.14,10.0,SSE,16.1,25.3,N/A,,Mostly Cloudy,160,2011-10-07 16:55:00
12:55 PM,78.8,53.6,42,30.12,10.0,SSE,17.3,-,N/A,,Mostly Cloudy,160,2011-10-07 17:55:00
1:55 PM,80.6,53.6,39,30.11,10.0,South,16.1,19.6,N/A,,Clear,180,2011-10-07 18:55:00
2:55 PM,80.6,50.0,34,30.10,10.0,South,16.1,25.3,N/A,,Scattered Clouds,170,2011-10-07 19:55:00
3:55 PM,80.4,50.2,35,30.09,10.0,South,17.3,24.2,N/A,,Clear,170,2011-10-07 20:55:00
4:55 PM,79.7,50.4,36,30.09,10.0,SSE,12.7,21.9,N/A,,Clear,160,2011-10-07 21:55:00
5:55 PM,76.5,52.5,43,30.08,10.0,SSE,11.5,-,N/A,,Clear,150,2011-10-07 22:55:00
6:55 PM,72.9,50.7,46,30.07,10.0,SSE,11.5,-,N/A,,Clear,150,2011-10-07 23:55:00
7:55 PM,72.5,48.4,42,30.07,10.0,SE,11.5,20.7,N/A,,Clear,140,2011-10-08 00:55:00
8:55 PM,72.0,47.3,41,30.08,10.0,SSE,9.2,-,N/A,,Clear,150,2011-10-08 01:55:00
9:55 PM,72.7,46.2,39,30.08,10.0,SSE,13.8,-,N/A,,Clear,160,2011-10-08 02:55:00
10:55 PM,71.2,46.6,41,30.09,10.0,SSE,9.2,-,N/A,,Clear,160,2011-10-08 03:55:00
11:55 PM,70.5,47.8,44,30.09,10.0,South,10.4,-,N/A,,Clear,170,2011-10-08 04:55:00